Flag for French Polynesia Weather past 2 weeks in Taiohae, Marquesas Islands, French Polynesia

Now
85 °F

Scattered clouds.


Feels Like: 90 °F
Forecast: 77 / 83 °F
Wind: 10 mph from Northeast

Location: Atuona

Current Time: Dec 18, 2014 at 5:00:52 PM

Latest Report: Dec 18, 2014 at 3:30 PM


Visibility: 16 mi

Pressure: 29.78 "Hg

Humidity: 60%

Dew point: 70 °F

Location of TaiohaeLocation

Historic Weather in Taiohae — Graph

°F

Taiohae temperature yesterday

Maximum temperature yesterday: 85 °F (at 3:30 PM)
Minimum temperature yesterday: 74 °F (at 2:30 AM)
Average temperature yesterday: 79 °F

Past Weeks' High & Low Weather Summary

 TemperatureHumidityPressure
High92 °F (Dec 6, 9:30 AM)96% (Dec 13, 2:30 AM)29.93 "Hg (Dec 13, 2:30 AM)
Low73 °F (Dec 13, 12:30 AM)51% (Dec 5, 11:30 AM)29.76 "Hg (Dec 4, 3:30 PM)
Average80 °F77%29.86 "Hg
* Reported Dec 3 3:30 PM — Dec 18 3:30 PM, Taiohae, Weather by CustomWeather, © 2014

Note: Actual official high and low records may vary slightly from our data, if they occured in-between our weather recording intervals... More about our weather records

Advertising

Taiohae weather history for previous 24 hours

 ConditionsComfort  
Time TempWeatherWind HumidityBarometerVisibility
3:30 PM
Dec 18
85 °FScattered clouds.10 mph60%29.78 "Hg16 mi
2:30 PM86 °FScattered clouds.10 mph61%29.79 "Hg16 mi
1:30 PM85 °FScattered clouds.12 mph63%29.81 "Hg16 mi
12:30 PM86 °FScattered clouds.9 mph62%29.83 "Hg16 mi
10:30 AM86 °FPartly sunny.8 mph63%29.88 "Hg16 mi
9:30 AM87 °FPartly sunny.10 mph62%29.89 "Hg19 mi
8:30 AM82 °FPartly sunny.10 mph71%29.90 "Hg19 mi
7:30 AM82 °FOvercast.9 mph71%29.90 "Hg19 mi
6:30 AM80 °FOvercast.6 mph73%29.89 "Hg19 mi
5:30 AM79 °FOvercast.7 mph69%29.88 "Hg16 mi
4:30 AM79 °FWarm.9 mph73%29.85 "HgN/A
3:30 AM79 °FWarm.7 mph73%29.84 "HgN/A
2:30 AM79 °FWarm.7 mph73%29.84 "HgN/A
1:30 AM78 °FWarm.6 mph75%29.85 "HgN/A
12:30 AM79 °FWarm.9 mph73%29.87 "HgN/A
11:30 PM
Dec 17
78 °FWarm.9 mph77%29.90 "HgN/A
10:30 PM77 °FMild.3 mph82%29.92 "HgN/A
9:30 PM78 °FWarm.7 mph77%29.93 "HgN/A
8:30 PM79 °FWarm.8 mph73%29.91 "HgN/A
7:30 PM78 °FWarm.6 mph79%29.90 "HgN/A
6:30 PM80 °FWarm.6 mph71%29.88 "HgN/A
Weather by CustomWeather, © 2014

See weather overviewHow to use our weather pages